Lid_Strength_Index
7 6 5 7 6 6 6 7 1 1 1 1 2 2 2 2 1 1 1 1 1 -0 1 0 1 1 2 2 1 2 3 2 2 2 3 2 2 1 2 1 0 -0 -0
7 6 6 6 6 7 7 6 8 6 2 1 1 1 1 1 1 1 1 1 2 -0 -0 0 1 1 2 3 1 2 3 2 1 3 3 5 4 3 2 2 1 1 0
7 7 7 6 6 6 7 7 6 5 5 1 1 1 2 2 3 2 1 1 1 1 -0 0 1 1 1 3 1 1 2 2 2 1 3 6 6 4 4 3 2 2 1
6 6 7 7 6 6 5 6 6 5 4 5 2 2 3 3 2 2 1 1 1 1 -0 -0 0 1 2 2 2 1 1 2 3 2 2 4 4 5 6 4 4 3 3
6 7 7 6 6 6 5 5 5 4 3 6 5 2 2 2 1 2 2 1 1 1 1 0 0 1 2 2 2 2 2 2 2 2 3 4 4 5 5 6 5 4 4
6 6 6 6 6 7 6 5 5 5 4 3 6 6 2 2 2 2 2 2 1 1 1 0 0 1 1 2 2 2 1 2 1 2 2 2 3 6 6 8 7 4 5
6 6 7 7 6 7 7 5 6 6 5 5 4 4 6 4 2 2 2 2 2 1 1 1 0 1 1 1 2 2 2 2 2 2 1 1 2 4 5 6 8 7 7
6 6 5 7 6 6 6 6 6 7 6 6 5 4 3 4 3 1 1 1 1 1 1 1 0 0 0 1 1 2 2 2 2 2 2 1 1 1 3 5 8 10 10
6 6 6 5 6 6 6 5 6 6 6 6 5 5 4 3 2 2 1 1 1 1 1 1 1 1 1 1 1 2 2 2 2 2 2 2 1 1 1 3 6 4 7
6 6 6 6 6 5 6 6 6 6 5 6 6 5 4 3 2 1 1 1 1 1 1 1 1 1 1 1 2 2 2 2 2 2 2 2 1 1 1 1 3 3 3
6 5 5 5 6 6 6 6 5 6 6 7 6 6 5 4 3 1 1 3 2 1 1 1 1 1 2 1 2 2 3 3 3 2 2 2 1 2 1 1 1 2 3
6 5 5 5 5 5 5 5 5 5 5 5 6 5 4 5 4 3 2 1 2 2 2 1 1 1 1 2 2 3 3 3 4 3 3 3 2 2 2 1 2 2 1
6 6 6 5 5 5 5 5 6 6 5 5 5 5 5 5 6 5 3 2 1 1 3 2 2 1 1 1 2 2 2 3 3 4 3 4 3 4 3 2 2 2 2
5 5 6 6 5 5 5 5 6 5 5 5 6 6 6 5 5 5 5 3 2 1 1 1 1 2 2 1 1 2 2 3 3 3 3 3 4 4 4 3 2 2 2
5 5 6 6 5 5 5 5 7 6 6 6 6 6 6 5 5 5 6 5 4 3 2 2 1 1 2 1 1 1 1 2 2 3 3 3 4 6 5 4 3 3 3
6 5 5 6 6 5 4 6 6 6 6 7 7 6 6 6 5 5 5 5 6 5 4 4 3 4 1 6 7 5 1 1 2 3 2 3 8 8 11 11 10 4 3
5 5 5 5 5 4 4 6 7 6 7 8 7 7 6 6 6 6 6 5 6 7 6 5 5 5 4 11 12 10 1 2 2 2 2 2 2 7 3 11 12 11 10
5 5 5 6 6 5 6 6 6 7 8 8 8 8 7 7 7 7 7 6 6 7 7 6 6 5 5 12 13 14 7 2 1 1 1 2 2 3 4 3 6 6 5
4 4 5 5 6 6 6 6 7 7 8 9 9 8 8 8 8 8 7 7 7 7 7 7 6 7 8 12 13 14 7 2 2 2 1 1 2 6 10 3 3 5 5
4 5 5 5 6 6 6 7 7 7 8 8 8 8 8 8 9 9 8 8 7 7 7 7 8 10 9 12 13 13 11 8 4 2 1 9 4 10 12 3 3 4 5
6 5 5 6 6 6 6 7 8 8 7 7 7 8 8 8 8 9 9 9 9 8 8 9 8 8 9 10 14 14 12 12 11 6 3 2 10 13 13 11 3 4 3
6 6 6 6 5 6 6 7 8 7 7 7 7 8 8 8 9 10 10 10 9 9 9 10 9 9 10 12 13 15 15 15 13 11 11 10 12 12 13 12 13 13 14
6 5 6 6 5 6 6 7 7 7 7 7 8 8 8 8 8 10 11 10 10 11 11 11 11 11 11 11 13 14 15 16 16 15 15 15 15 13 13 14 14 15 10
6 6 6 6 6 6 6 6 6 6 7 7 8 8 8 8 8 9 10 11 12 11 12 11 12 11 11 11 12 13 15 15 15 16 16 16 17 16 13 15 14 11 10
6 6 6 7 6 6 6 6 7 7 8 8 8 8 7 8 8 9 10 11 11 12 12 12 12 12 12 11 11 12 14 14 14 15 15 15 15 15 15 14 14 15 14
7 7 7 7 7 7 8 7 7 7 8 8 7 8 8 8 9 9 9 9 11 11 11 11 12 12 12 12 11 11 12 12 13 14 15 16 16 16 15 16 16 17 16